Location: downtown San Diego
(32.7310°N, 117.1990°W)
Time: 17:53:14
(UTC-07:00)

Yuri Rocket - Pass Details

Date: 19 May 2017
Orbit: 568 x 1915 km, 28.2° (Epoch: 26 May)

Event Time Altitude Azimuth Distance (km) Brightness Sun altitude
Rises 21:16:09 0° 258° (WSW) 4,922 8.2 -17.4°
Reaches altitude 10° 21:19:49 10° 255° (WSW) 3,756 7.5 -18.0°
Maximum altitude 21:29:10 63° 177° (S) 1,358 4.5 -19.5°
Enters shadow 21:32:54 30° 108° (ESE) 1,839 4.9 -20.0°
